This demonstration page uses our WeatherBlox Daily Observations layout. Learn more.

Left ArrowRight Arrow

Hourly Observations for April 27, 2021

Temp ( °F °C ) Dew Point ( °F °C ) Humidity (%) Winds ( mph kmh ) Pressure ( in mb ) Visibility ( mi km ) Precip ( " mm )
12:53 am 00:53 Clear 39 3.9 29 -1.7 67 67 SSW 8 13 29.78 1008 10 16 0.00 0.00
1:53 am 01:53 Clear 35 1.7 29 -1.7 78 78 S 9 15 29.80 1009 10 16 0.00 0.00
2:53 am 02:53 Clear 36 2.2 29 -1.7 76 76 SW 12 19 29.80 1009 10 16 0.00 0.00
3:53 am 03:53 Clear 34 1.1 28 -2.2 79 79 SSW 8 13 29.81 1010 10 16 0.00 0.00
4:53 am 04:53 Clear 32 0 27 -2.8 82 82 SW 9 15 29.84 1011 10 16 0.00 0.00
5:53 am 05:53 Clear 32 0 27 -2.8 82 82 SW 10 17 29.85 1011 10 16 0.00 0.00
6:53 am 06:53 Sunny 33 0.6 28 -2.2 82 82 SW 8 13 29.86 1011 10 16 0.00 0.00
7:53 am 07:53 Sunny 43 6.1 32 0 65 65 WSW 14 22 29.88 1012 10 16 0.00 0.00
8:53 am 08:53 Sunny 48 8.9 30 -1.1 50 50 SW 18 30 29.89 1012 10 16 0.00 0.00
9:53 am 09:53 Sunny 52 11.1 30 -1.1 43 43 SW 17 28 29.89 1012 10 16 0.00 0.00
10:53 am 10:53 Sunny 55 12.8 31 -0.6 40 40 SW 16 26 29.89 1012 10 16 0.00 0.00
11:53 am 11:53 Sunny 58 14.4 30 -1.1 35 35 SW 8 13 29.89 1012 10 16 0.00 0.00
12:53 pm 12:53 Sunny 60 15.6 26 -3.3 27 27 WSW 16 26 29.88 1012 10 16 0.00 0.00
1:53 pm 13:53 Sunny 63 17.2 27 -2.8 26 26 W 13 20 29.88 1012 10 16 0.00 0.00
2:53 pm 14:53 Sunny 63 17.2 25 -3.9 24 24 SW 12 19 29.88 1012 10 16 0.00 0.00
3:53 pm 15:53 Sunny 64 17.8 25 -3.9 23 23 WSW 5 7 29.88 1012 10 16 0.00 0.00
4:53 pm 16:53 Sunny 65 18.3 25 -3.9 22 22 SW 13 20 29.87 1011 10 16 0.00 0.00
5:53 pm 17:53 Sunny 64 17.8 25 -3.9 23 23 SW 10 17 29.87 1012 10 16 0.00 0.00
6:53 pm 18:53 Sunny 63 17.2 25 -3.9 24 24 SW 12 19 29.87 1012 10 16 0.00 0.00
7:53 pm 19:53 Sunny 59 15 26 -3.3 28 28 SSW 10 17 29.86 1011 10 16 0.00 0.00
8:53 pm 20:53 Clear 52 11.1 28 -2.2 40 40 SSW 13 20 29.88 1012 10 16 0.00 0.00
9:53 pm 21:53 Clear 50 10 28 -2.2 43 43 SW 9 15 29.89 1012 10 16 0.00 0.00
10:53 pm 22:53 Clear 49 9.4 29 -1.7 46 46 S 9 15 29.90 1013 10 16 0.00 0.00
11:53 pm 23:53 Clear 47 8.3 31 -0.6 54 54 S 8 13 29.91 1013 10 16 0.00 0.00

Powered by AerisWeather